User: anonymous   Login
Location: Allentsteig
(48.6833°N, 15.3167°E)
Time: 02:31:50
(UTC+00:00)
Language:

Lacrosse 4 Rocket - Orbit

View from above orbital plane
View from above orbital plane
View from above satellite
View from above satellite

Ground track
Ground track

The orbit data is extracted from the following two-line orbital elements,

1 26474U 00047B   20334.46081868 +.00000465 +00000-0 +51045-4 0  9991
2 26474 067.9939 341.4805 0054886 010.8865 349.3450 14.96028490103928
Epoch (UTC): 29 November 2020 11:03:34
Eccentricity: 0.0054886
inclination: 67.9939°
perigee height: 541 km
apogee height: 617 km
right ascension of ascending node: 341.4805°
argument of perigee: 10.8865°
revolutions per day: 14.96028490
mean anomaly at epoch: 349.3450°
orbit number at epoch: 10392

The dashed part of the orbit path shows where the satellite is in the earth's shadow,  

DLR